Molokai, HI

10:56 AM HST on March 24, 2017 (GMT -1000)
Molokai

Weather History for PHMK - March, 2013

Change the Weather History Date:

Friday, March 1, 2013

  Actual Average Record
Temperature  
Mean Temperature 72 °F -  
Max Temperature 75 °F 77 °F 84 °F (1958)
Min Temperature 68 °F 63 °F 52 °F (2005)
Cooling Degree Days 6    
Growing Degree Days 22 (Base 50)    
Moisture  
Dew Point 57 °F    
Average Humidity 61    
Maximum Humidity 68    
Minimum Humidity 50    
Precipitation  
Precipitation 0.00 in - - ()
Sea Level Pressure  
Sea Level Pressure 30.16 in    
Wind  
Wind Speed 16 mph (NE)    
Max Wind Speed 23 mph    
Max Gust Speed 36 mph    
Visibility 10 miles    
Events Rain    
Averages and records for this station are not official NWS values.
T = Trace of Precipitation, MM = Missing Value Source: NWS Daily Summary

Daily Weather History Graph

Daily Weather History Graph

Search for Another Location

Airport or City:

Trip Planner

Search our weather history database for the weather conditions in past years. The results will help you decide how hot, cold, wet, or windy it might be!

Date:

Astronomy

Mar. 01, 2013 Rise Set
Actual Time 6:48 AM HST 6:33 PM HST
Civil Twilight 6:26 AM HST 6:55 PM HST
Nautical Twilight 6:00 AM HST 7:21 PM HST
Astronomical Twilight 5:34 AM HST 7:46 PM HST
Moon 10:36 PM HST (3/1) 9:20 AM HST (3/1)
Length of Visible Light 12h 29m
Length of Day
11h 44m
Waning Gibbous, 81% of the Moon is Illuminated
Mar 1
Waning Gibbous
Mar 4
Last Quarter
Mar 11
New
Mar 19
First Quarter
Mar 26
Full

Hourly Weather History & Observations

Time (HST) Temp. Dew Point Humidity Pressure Visibility Wind Dir Wind Speed Gust Speed Precip Events Conditions
12:54 AM 69.1 °F 57.9 °F 68% 30.20 in 10.0 mi NE 17.3 mph 31.1 mph N/A   Overcast
1:23 AM 69.8 °F 57.2 °F 64% 30.18 in 10.0 mi NE 15.0 mph 27.6 mph N/A   Mostly Cloudy
1:44 AM 69.8 °F 57.2 °F 64% 30.18 in 10.0 mi NE 16.1 mph 29.9 mph N/A   Overcast
1:54 AM 69.1 °F 57.0 °F 65% 30.18 in 10.0 mi NE 16.1 mph 27.6 mph N/A   Overcast
2:54 AM 69.1 °F 54.0 °F 58% 30.17 in 10.0 mi NE 17.3 mph 26.5 mph N/A   Overcast
3:54 AM 69.1 °F 54.0 °F 58% 30.15 in 10.0 mi NE 16.1 mph 27.6 mph N/A   Mostly Cloudy
4:54 AM 68.0 °F 54.0 °F 61% 30.14 in 10.0 mi NE 8.1 mph - N/A   Clear
5:54 AM 69.1 °F 55.0 °F 61% 30.14 in 10.0 mi NE 12.7 mph 21.9 mph N/A   Mostly Cloudy
6:54 AM 69.1 °F 57.0 °F 65% 30.15 in 10.0 mi NE 16.1 mph 28.8 mph N/A   Mostly Cloudy
7:54 AM 69.1 °F 57.9 °F 68% 30.17 in 10.0 mi ENE 18.4 mph 28.8 mph N/A   Overcast
8:54 AM 71.1 °F 57.9 °F 63% 30.19 in 10.0 mi NE 18.4 mph 28.8 mph N/A   Scattered Clouds
9:54 AM 72.0 °F 57.9 °F 61% 30.20 in 10.0 mi NE 17.3 mph 35.7 mph N/A   Scattered Clouds
10:54 AM 75.0 °F 57.9 °F 55% 30.20 in 10.0 mi NE 16.1 mph 29.9 mph N/A   Scattered Clouds
11:54 AM 73.0 °F 57.9 °F 59% 30.20 in 10.0 mi NE 16.1 mph 23.0 mph N/A   Overcast
12:54 PM 75.0 °F 57.9 °F 55% 30.18 in 10.0 mi ENE 19.6 mph 27.6 mph N/A   Scattered Clouds
1:54 PM 72.0 °F 57.9 °F 61% 30.16 in 10.0 mi ENE 16.1 mph 25.3 mph 0.00 in Rain Light Rain
2:54 PM 75.0 °F 57.9 °F 55% 30.13 in 10.0 mi ENE 23.0 mph 31.1 mph 0.00 in   Scattered Clouds
3:54 PM 75.0 °F 55.0 °F 50% 30.12 in 10.0 mi NE 16.1 mph 31.1 mph 0.00 in   Scattered Clouds
4:54 PM 72.0 °F 55.9 °F 57% 30.11 in 10.0 mi NE 19.6 mph 34.5 mph N/A   Partly Cloudy
5:54 PM 71.1 °F 53.1 °F 53% 30.12 in 10.0 mi NE 19.6 mph 34.5 mph N/A   Clear
6:54 PM 68.0 °F 54.0 °F 61% 30.13 in 10.0 mi NE 11.5 mph 24.2 mph N/A   Partly Cloudy
7:54 PM 68.0 °F 55.9 °F 65% 30.15 in 10.0 mi NE 15.0 mph 26.5 mph N/A   Clear
8:54 PM 69.1 °F 57.0 °F 65% 30.17 in 10.0 mi NE 11.5 mph 25.3 mph N/A   Clear
9:54 PM 69.1 °F 57.9 °F 68% 30.18 in 10.0 mi ENE 15.0 mph 23.0 mph N/A   Mostly Cloudy
10:54 PM 69.1 °F 57.9 °F 68% 30.19 in 10.0 mi NE 17.3 mph 25.3 mph N/A   Mostly Cloudy
11:54 PM 69.1 °F 57.0 °F 65% 30.17 in 10.0 mi NE 17.3 mph 31.1 mph N/A   Partly Cloudy